This demonstration page uses our WeatherBlox Daily Observations layout. Learn more.

Left ArrowRight Arrow

Hourly Observations for June 14, 2021

Temp ( °F °C ) Dew Point ( °F °C ) Humidity (%) Winds ( mph kmh ) Pressure ( in mb ) Visibility ( mi km ) Precip ( " mm )
12:53 am 00:53 Clear 76 24.4 53 11.7 45 45 S 20 31 29.85 1011 10 16 0.00 0.00
1:53 am 01:53 Mostly Clear 74 23.3 55 12.8 52 52 S 18 30 29.86 1011 10 16 0.00 0.00
2:53 am 02:53 Mostly Clear 73 22.8 55 12.8 53 53 S 16 26 29.87 1011 10 16 0.00 0.00
3:53 am 03:53 Clear 71 21.7 56 13.3 59 59 SSW 12 19 29.88 1012 10 16 0.00 0.00
4:53 am 04:53 Mostly Cloudy 69 20.6 57 13.9 66 66 SW 7 11 29.90 1013 10 16 0.00 0.00
5:53 am 05:53 Cloudy 69 20.6 57 13.9 66 66 SW 7 11 29.92 1013 10 16 0.00 0.00
6:53 am 06:53 Mostly Cloudy 68 20 58 14.4 70 70 VRB 3 6 29.94 1014 10 16 0.00 0.00
7:53 am 07:53 Mostly Cloudy 68 20 58 14.4 70 70 S 8 13 29.95 1014 10 16 0.00 0.00
8:53 am 08:53 Cloudy 73 22.8 58 14.4 59 59 Calm 29.96 1015 10 16 0.00 0.00
9:53 am 09:53 Cloudy 74 23.3 58 14.4 57 57 SSW 6 9 29.95 1014 10 16 0.00 0.00
10:53 am 10:53 Cloudy 77 25 57 13.9 50 50 SSE 13 20 29.94 1014 10 16 0.00 0.00
11:53 am 11:53 Mostly Cloudy 79 26.1 56 13.3 45 45 SSW 14 22 29.93 1014 10 16 0.00 0.00
12:53 pm 12:53 Mostly Sunny 82 27.8 55 12.8 40 40 S 10 17 29.92 1013 10 16 0.00 0.00
1:53 pm 13:53 Sunny 85 29.4 52 11.1 32 32 S 16 26 29.91 1013 10 16 0.00 0.00
2:53 pm 14:53 Sunny 86 30 50 10 29 29 SSE 16 26 29.88 1012 10 16 0.00 0.00
3:53 pm 15:53 Sunny 86 30 51 10.6 30 30 SSE 21 33 29.87 1012 10 16 0.00 0.00
4:53 pm 16:53 Sunny 87 30.6 49 9.4 27 27 SE 20 31 29.86 1011 10 16 0.00 0.00
5:53 pm 17:53 Sunny 88 31.1 44 6.7 22 22 SSE 16 26 29.86 1011 10 16 0.00 0.00
6:53 pm 18:53 Partly Cloudy 85 29.4 49 9.4 29 29 S 14 22 29.86 1011 10 16 0.00 0.00
7:53 pm 19:53 Sunny 83 28.3 50 10 32 32 VRB 5 7 29.87 1012 10 16 0.00 0.00
8:53 pm 20:53 Clear 81 27.2 49 9.4 33 33 VRB 3 6 29.89 1012 10 16 0.00 0.00
9:53 pm 21:53 Clear 76 24.4 47 8.3 36 36 WNW 3 6 29.91 1013 10 16 0.00 0.00
10:53 pm 22:53 Clear 74 23.3 46 7.8 37 37 NW 7 11 29.92 1013 10 16 0.00 0.00
11:53 pm 23:53 Clear 71 21.7 46 7.8 41 41 WNW 5 7 29.93 1014 10 16 0.00 0.00

Powered by AerisWeather